LOCATION_NAME,SAMPLE COLLECTION TIME,DOSE EQUIVALENT RATE (nSv/h),GAMMA COUNT RATE R02 (CPM),GAMMA COUNT RATE R03 (CPM),GAMMA COUNT RATE R04 (CPM),GAMMA COUNT RATE R05 (CPM),GAMMA COUNT RATE R06 (CPM),GAMMA COUNT RATE R07 (CPM),GAMMA COUNT RATE R08 (CPM),GAMMA COUNT RATE R09 (CPM),STATUS
WI: LA CROSSE,01/03/2017 15:46:00,,1934.00,1013.00,283.00,134.00,85.00,106.00,58.00,30.00,APPROVED
WI: LA CROSSE,01/03/2017 16:46:00,,1967.00,1057.00,298.00,146.00,90.00,111.00,59.00,29.00,APPROVED
WI: LA CROSSE,01/03/2017 17:47:00,,2034.00,1140.00,303.00,171.00,94.00,111.00,70.00,32.00,APPROVED
WI: LA CROSSE,01/03/2017 18:47:00,,2049.00,1151.00,302.00,173.00,95.00,115.00,68.00,31.00,APPROVED
WI: LA CROSSE,01/03/2017 19:47:00,,2023.00,1123.00,299.00,168.00,94.00,109.00,70.00,31.00,APPROVED
WI: LA CROSSE,01/06/2017 16:55:00,,2006.00,1094.00,300.00,149.00,89.00,111.00,60.00,27.00,APPROVED
WI: LA CROSSE,01/06/2017 17:56:00,,1992.00,1088.00,296.00,150.00,90.00,109.00,61.00,29.00,APPROVED
WI: LA CROSSE,01/06/2017 18:56:00,,1983.00,1077.00,296.00,148.00,89.00,107.00,63.00,28.00,APPROVED
WI: LA CROSSE,01/06/2017 19:56:00,,1940.00,1047.00,284.00,143.00,86.00,103.00,62.00,28.00,APPROVED
WI: LA CROSSE,01/06/2017 20:56:00,,1922.00,1038.00,278.00,142.00,84.00,101.00,62.00,27.00,APPROVED
WI: LA CROSSE,01/06/2017 21:56:00,,1920.00,1027.00,277.00,139.00,82.00,100.00,62.00,28.00,APPROVED
WI: LA CROSSE,01/06/2017 22:57:00,,1890.00,1005.00,275.00,136.00,86.00,95.00,62.00,27.00,APPROVED
WI: LA CROSSE,01/06/2017 23:57:00,,1902.00,1011.00,274.00,139.00,86.00,99.00,62.00,26.00,APPROVED
WI: LA CROSSE,01/07/2017 00:57:00,,1905.00,1015.00,279.00,138.00,85.00,98.00,61.00,26.00,APPROVED
WI: LA CROSSE,01/07/2017 01:57:00,,1921.00,1029.00,278.00,138.00,87.00,100.00,59.00,28.00,APPROVED
WI: LA CROSSE,01/07/2017 02:57:00,,1943.00,1042.00,286.00,140.00,87.00,102.00,61.00,28.00,APPROVED
WI: LA CROSSE,01/07/2017 03:58:00,,1930.00,1045.00,289.00,144.00,86.00,103.00,59.00,28.00,APPROVED
WI: LA CROSSE,01/07/2017 04:58:00,,1930.00,1031.00,284.00,143.00,83.00,103.00,61.00,28.00,APPROVED
WI: LA CROSSE,01/07/2017 05:58:00,,1937.00,1045.00,287.00,142.00,86.00,102.00,60.00,26.00,APPROVED
WI: LA CROSSE,01/07/2017 06:58:00,,1952.00,1056.00,290.00,144.00,85.00,104.00,61.00,27.00,APPROVED
WI: LA CROSSE,01/07/2017 07:58:00,,1987.00,1073.00,293.00,144.00,88.00,107.00,61.00,29.00,APPROVED
WI: LA CROSSE,01/07/2017 08:59:00,,1984.00,1085.00,293.00,149.00,89.00,108.00,61.00,28.00,APPROVED
WI: LA CROSSE,01/07/2017 09:59:00,,1992.00,1093.00,296.00,152.00,89.00,108.00,65.00,28.00,APPROVED
WI: LA CROSSE,01/07/2017 10:59:00,,2000.00,1096.00,303.00,155.00,92.00,111.00,65.00,29.00,APPROVED
WI: LA CROSSE,01/07/2017 11:59:00,,2001.00,1114.00,305.00,156.00,90.00,113.00,66.00,29.00,APPROVED
WI: LA CROSSE,01/07/2017 12:59:00,,2000.00,1120.00,305.00,159.00,91.00,114.00,67.00,29.00,APPROVED
WI: LA CROSSE,01/07/2017 14:00:00,,2007.00,1125.00,309.00,158.00,93.00,113.00,65.00,29.00,APPROVED
WI: LA CROSSE,01/07/2017 15:00:00,,2008.00,1124.00,307.00,157.00,94.00,113.00,66.00,29.00,APPROVED
WI: LA CROSSE,01/07/2017 16:00:00,,2023.00,1129.00,302.00,159.00,94.00,114.00,66.00,29.00,APPROVED
WI: LA CROSSE,01/07/2017 17:00:00,,2026.00,1116.00,307.00,158.00,93.00,111.00,65.00,30.00,APPROVED
WI: LA CROSSE,01/07/2017 18:00:00,,1972.00,1069.00,292.00,149.00,89.00,105.00,63.00,28.00,APPROVED
WI: LA CROSSE,01/07/2017 19:01:00,,1955.00,1060.00,287.00,146.00,87.00,102.00,64.00,28.00,APPROVED
WI: LA CROSSE,01/07/2017 20:01:00,,1945.00,1048.00,284.00,143.00,85.00,101.00,63.00,28.00,APPROVED
WI: LA CROSSE,01/07/2017 21:01:00,,1932.00,1038.00,279.00,143.00,86.00,99.00,61.00,27.00,APPROVED
WI: LA CROSSE,01/07/2017 22:01:00,,1915.00,1018.00,276.00,141.00,83.00,95.00,61.00,28.00,APPROVED
WI: LA CROSSE,01/07/2017 23:01:00,,1896.00,1015.00,272.00,141.00,85.00,97.00,61.00,27.00,APPROVED
WI: LA CROSSE,01/08/2017 00:02:00,,1885.00,1006.00,271.00,137.00,85.00,96.00,61.00,26.00,APPROVED
WI: LA CROSSE,01/08/2017 01:02:00,,1883.00,1012.00,272.00,135.00,83.00,95.00,63.00,25.00,APPROVED
WI: LA CROSSE,01/08/2017 02:02:00,,1884.00,1003.00,267.00,134.00,84.00,97.00,60.00,27.00,APPROVED
WI: LA CROSSE,01/08/2017 03:02:00,,1877.00,1002.00,273.00,133.00,85.00,96.00,59.00,27.00,APPROVED
WI: LA CROSSE,01/08/2017 04:02:00,,1893.00,1005.00,271.00,136.00,84.00,99.00,60.00,26.00,APPROVED
WI: LA CROSSE,01/08/2017 05:03:00,,1888.00,1005.00,273.00,137.00,82.00,95.00,61.00,26.00,APPROVED
WI: LA CROSSE,01/08/2017 06:03:00,,1885.00,1002.00,271.00,139.00,85.00,97.00,63.00,28.00,APPROVED
WI: LA CROSSE,01/08/2017 07:03:00,,1876.00,1003.00,274.00,134.00,84.00,94.00,61.00,27.00,APPROVED
WI: LA CROSSE,01/08/2017 08:03:00,,1885.00,1003.00,276.00,135.00,84.00,98.00,61.00,27.00,APPROVED
WI: LA CROSSE,01/08/2017 09:03:00,,1909.00,1018.00,277.00,140.00,86.00,102.00,60.00,26.00,APPROVED
WI: LA CROSSE,01/08/2017 10:04:00,,1907.00,1033.00,279.00,141.00,85.00,99.00,61.00,27.00,APPROVED
WI: LA CROSSE,01/08/2017 11:04:00,,1914.00,1030.00,280.00,142.00,85.00,101.00,62.00,28.00,APPROVED
WI: LA CROSSE,01/08/2017 12:04:00,,1900.00,1030.00,284.00,140.00,86.00,102.00,59.00,27.00,APPROVED
WI: LA CROSSE,01/08/2017 13:04:00,,1919.00,1038.00,285.00,141.00,87.00,105.00,60.00,27.00,APPROVED
WI: LA CROSSE,01/08/2017 14:04:00,,1905.00,1026.00,281.00,138.00,88.00,102.00,59.00,26.00,APPROVED
WI: LA CROSSE,01/08/2017 15:05:00,,1891.00,1015.00,282.00,142.00,87.00,101.00,61.00,26.00,APPROVED
WI: LA CROSSE,01/08/2017 16:05:00,,1915.00,1031.00,281.00,141.00,87.00,101.00,60.00,27.00,APPROVED
WI: LA CROSSE,01/08/2017 17:05:00,,1935.00,1049.00,284.00,147.00,89.00,103.00,61.00,27.00,APPROVED
WI: LA CROSSE,01/08/2017 18:05:00,,1992.00,1084.00,290.00,149.00,89.00,106.00,63.00,28.00,APPROVED
WI: LA CROSSE,01/08/2017 19:05:00,,1995.00,1098.00,297.00,152.00,89.00,106.00,65.00,29.00,APPROVED
WI: LA CROSSE,01/08/2017 20:06:00,,1952.00,1073.00,287.00,154.00,89.00,103.00,64.00,29.00,APPROVED
WI: LA CROSSE,01/08/2017 21:06:00,,1946.00,1055.00,282.00,145.00,87.00,103.00,63.00,29.00,APPROVED
WI: LA CROSSE,01/10/2017 21:09:00,,2607.00,1662.00,437.00,293.00,139.00,173.00,98.00,46.00,APPROVED
WI: LA CROSSE,01/10/2017 22:09:00,,2258.00,1377.00,360.00,234.00,114.00,139.00,82.00,39.00,APPROVED
WI: LA CROSSE,01/10/2017 23:09:00,,2139.00,1307.00,340.00,214.00,108.00,133.00,80.00,36.00,APPROVED
WI: LA CROSSE,01/11/2017 00:09:00,,2050.00,1223.00,326.00,200.00,102.00,127.00,75.00,33.00,APPROVED
WI: LA CROSSE,01/11/2017 01:09:00,,2005.00,1178.00,312.00,180.00,94.00,119.00,71.00,30.00,APPROVED
WI: LA CROSSE,01/11/2017 02:10:00,,1964.00,1136.00,305.00,173.00,94.00,115.00,68.00,31.00,APPROVED
WI: LA CROSSE,01/11/2017 03:10:00,,1915.00,1082.00,292.00,161.00,88.00,106.00,65.00,29.00,APPROVED
WI: LA CROSSE,01/11/2017 04:10:00,,1918.00,1075.00,287.00,157.00,85.00,107.00,64.00,28.00,APPROVED
WI: LA CROSSE,01/11/2017 05:10:00,,1913.00,1063.00,288.00,152.00,85.00,104.00,62.00,28.00,APPROVED
WI: LA CROSSE,01/11/2017 06:10:00,,1894.00,1046.00,285.00,152.00,87.00,102.00,62.00,29.00,APPROVED
WI: LA CROSSE,01/11/2017 07:11:00,,1865.00,1032.00,282.00,148.00,84.00,100.00,61.00,28.00,APPROVED
WI: LA CROSSE,01/11/2017 08:11:00,,1866.00,1034.00,282.00,142.00,85.00,104.00,62.00,27.00,APPROVED
WI: LA CROSSE,01/11/2017 09:11:00,,1903.00,1065.00,287.00,152.00,89.00,104.00,62.00,28.00,APPROVED
WI: LA CROSSE,01/11/2017 10:11:00,,1897.00,1057.00,286.00,153.00,86.00,102.00,62.00,28.00,APPROVED
WI: LA CROSSE,01/11/2017 11:11:00,,1901.00,1061.00,281.00,154.00,87.00,104.00,65.00,29.00,APPROVED
WI: LA CROSSE,01/11/2017 12:12:00,,1902.00,1071.00,280.00,157.00,86.00,105.00,65.00,29.00,APPROVED
WI: LA CROSSE,01/11/2017 13:12:00,,1942.00,1093.00,288.00,163.00,89.00,107.00,66.00,28.00,APPROVED
WI: LA CROSSE,01/11/2017 14:12:00,,1961.00,1105.00,291.00,166.00,89.00,107.00,68.00,29.00,APPROVED
WI: LA CROSSE,01/11/2017 15:12:00,,1945.00,1104.00,289.00,164.00,90.00,105.00,66.00,30.00,APPROVED
WI: LA CROSSE,01/11/2017 16:12:00,,1956.00,1102.00,291.00,166.00,90.00,109.00,66.00,30.00,APPROVED
WI: LA CROSSE,01/11/2017 17:13:00,,1955.00,1109.00,295.00,171.00,89.00,108.00,67.00,31.00,APPROVED
WI: LA CROSSE,01/11/2017 18:13:00,,1948.00,1098.00,290.00,168.00,93.00,108.00,68.00,30.00,APPROVED
WI: LA CROSSE,01/11/2017 19:13:00,,1943.00,1091.00,288.00,166.00,91.00,108.00,64.00,28.00,APPROVED
WI: LA CROSSE,01/11/2017 20:13:00,,1913.00,1078.00,287.00,163.00,88.00,106.00,65.00,30.00,APPROVED
WI: LA CROSSE,01/11/2017 21:13:00,,1884.00,1054.00,285.00,154.00,86.00,105.00,64.00,28.00,APPROVED
WI: LA CROSSE,01/11/2017 22:14:00,,1852.00,1016.00,273.00,149.00,82.00,98.00,61.00,28.00,APPROVED
WI: LA CROSSE,01/11/2017 23:14:00,,1816.00,995.00,265.00,142.00,81.00,94.00,60.00,27.00,APPROVED
WI: LA CROSSE,01/12/2017 00:14:00,,1810.00,983.00,265.00,140.00,79.00,94.00,59.00,26.00,APPROVED
WI: LA CROSSE,01/12/2017 01:14:00,,1795.00,975.00,265.00,139.00,80.00,95.00,60.00,29.00,APPROVED
WI: LA CROSSE,01/12/2017 02:14:00,,1787.00,975.00,259.00,139.00,80.00,95.00,59.00,26.00,APPROVED
WI: LA CROSSE,01/12/2017 03:15:00,,1792.00,970.00,262.00,134.00,78.00,93.00,57.00,27.00,APPROVED
WI: LA CROSSE,01/12/2017 04:15:00,,1791.00,974.00,263.00,135.00,79.00,93.00,58.00,27.00,APPROVED
WI: LA CROSSE,01/12/2017 05:15:00,,1794.00,966.00,255.00,136.00,78.00,92.00,56.00,26.00,APPROVED
WI: LA CROSSE,01/12/2017 06:15:00,,1783.00,965.00,259.00,135.00,81.00,93.00,58.00,26.00,APPROVED
WI: LA CROSSE,01/12/2017 07:15:00,,1779.00,971.00,255.00,136.00,78.00,92.00,59.00,26.00,APPROVED
WI: LA CROSSE,01/12/2017 08:16:00,,1787.00,962.00,261.00,136.00,79.00,93.00,57.00,26.00,APPROVED
WI: LA CROSSE,01/12/2017 09:16:00,,1771.00,961.00,267.00,137.00,79.00,94.00,57.00,27.00,APPROVED
WI: LA CROSSE,01/12/2017 10:16:00,,1773.00,960.00,259.00,133.00,76.00,92.00,57.00,26.00,APPROVED
WI: LA CROSSE,01/12/2017 11:16:00,,1762.00,955.00,260.00,134.00,76.00,91.00,57.00,26.00,APPROVED
WI: LA CROSSE,01/12/2017 12:16:00,,1788.00,963.00,260.00,136.00,78.00,93.00,57.00,27.00,APPROVED
WI: LA CROSSE,01/12/2017 13:16:00,,1789.00,964.00,260.00,133.00,80.00,94.00,57.00,26.00,APPROVED
WI: LA CROSSE,01/12/2017 14:17:00,,1778.00,956.00,258.00,135.00,77.00,92.00,58.00,26.00,APPROVED
WI: LA CROSSE,01/12/2017 15:17:00,,1768.00,958.00,256.00,134.00,77.00,91.00,58.00,26.00,APPROVED
WI: LA CROSSE,01/12/2017 16:17:00,,1763.00,952.00,257.00,133.00,79.00,93.00,56.00,27.00,APPROVED
WI: LA CROSSE,01/12/2017 17:17:00,,1780.00,960.00,258.00,135.00,78.00,91.00,58.00,26.00,APPROVED
WI: LA CROSSE,01/12/2017 18:17:00,,1777.00,949.00,259.00,132.00,77.00,92.00,58.00,26.00,APPROVED
WI: LA CROSSE,01/12/2017 19:18:00,,1749.00,937.00,253.00,131.00,78.00,90.00,57.00,26.00,APPROVED
WI: LA CROSSE,01/12/2017 20:18:00,,1745.00,923.00,251.00,126.00,75.00,90.00,56.00,26.00,APPROVED
WI: LA CROSSE,01/12/2017 21:18:00,,1735.00,913.00,248.00,128.00,73.00,88.00,57.00,27.00,APPROVED
WI: LA CROSSE,01/12/2017 22:18:00,,1733.00,914.00,248.00,124.00,74.00,88.00,55.00,27.00,APPROVED
WI: LA CROSSE,01/12/2017 23:18:00,,1768.00,943.00,249.00,128.00,80.00,88.00,58.00,27.00,APPROVED
WI: LA CROSSE,01/13/2017 00:19:00,,1805.00,974.00,262.00,135.00,79.00,93.00,58.00,27.00,APPROVED
WI: LA CROSSE,01/13/2017 01:19:00,,1849.00,1016.00,269.00,146.00,81.00,98.00,62.00,28.00,APPROVED
WI: LA CROSSE,01/13/2017 02:19:00,,1836.00,1019.00,269.00,145.00,82.00,99.00,60.00,27.00,APPROVED
WI: LA CROSSE,01/13/2017 03:19:00,,1789.00,984.00,265.00,140.00,78.00,98.00,59.00,27.00,APPROVED
WI: LA CROSSE,01/13/2017 04:19:00,,1756.00,951.00,254.00,134.00,76.00,92.00,57.00,26.00,APPROVED
WI: LA CROSSE,01/13/2017 05:20:00,,1737.00,928.00,256.00,126.00,78.00,88.00,58.00,27.00,APPROVED
WI: LA CROSSE,01/13/2017 06:20:00,,1728.00,920.00,249.00,126.00,76.00,87.00,55.00,24.00,APPROVED
WI: LA CROSSE,01/13/2017 07:20:00,,1726.00,919.00,252.00,124.00,77.00,89.00,53.00,26.00,APPROVED
WI: LA CROSSE,01/13/2017 08:20:00,,1728.00,916.00,249.00,123.00,73.00,90.00,54.00,26.00,APPROVED
WI: LA CROSSE,01/13/2017 09:20:00,,1729.00,918.00,252.00,123.00,73.00,87.00,53.00,25.00,APPROVED
WI: LA CROSSE,01/13/2017 10:21:00,,1729.00,910.00,250.00,123.00,74.00,88.00,52.00,27.00,APPROVED
WI: LA CROSSE,01/13/2017 11:21:00,,1717.00,915.00,247.00,122.00,74.00,86.00,53.00,26.00,APPROVED
WI: LA CROSSE,01/13/2017 12:21:00,,1723.00,911.00,249.00,122.00,73.00,88.00,54.00,25.00,APPROVED
WI: LA CROSSE,01/13/2017 13:21:00,,1742.00,926.00,250.00,126.00,78.00,89.00,53.00,25.00,APPROVED
WI: LA CROSSE,01/13/2017 14:22:00,,1740.00,929.00,249.00,126.00,73.00,89.00,54.00,26.00,APPROVED
WI: LA CROSSE,01/13/2017 17:43:00,,1727.00,916.00,244.00,123.00,75.00,85.00,57.00,26.00,APPROVED
WI: LA CROSSE,01/13/2017 18:44:00,,1770.00,864.00,252.00,106.00,78.00,60.00,56.00,19.00,APPROVED
WI: LA CROSSE,01/13/2017 19:44:00,,1746.00,928.00,255.00,129.00,73.00,90.00,55.00,27.00,APPROVED
WI: LA CROSSE,01/13/2017 20:44:00,,1748.00,936.00,248.00,131.00,77.00,88.00,57.00,26.00,APPROVED
WI: LA CROSSE,01/13/2017 21:44:00,,1748.00,936.00,247.00,130.00,76.00,88.00,55.00,25.00,APPROVED
WI: LA CROSSE,01/13/2017 22:44:00,,1751.00,927.00,251.00,129.00,77.00,85.00,54.00,27.00,APPROVED
WI: LA CROSSE,01/13/2017 23:45:00,,1750.00,927.00,248.00,129.00,75.00,88.00,55.00,26.00,APPROVED
WI: LA CROSSE,01/14/2017 00:45:00,,1737.00,922.00,250.00,127.00,76.00,87.00,56.00,26.00,APPROVED
WI: LA CROSSE,01/14/2017 01:45:00,,1732.00,930.00,248.00,128.00,79.00,88.00,56.00,25.00,APPROVED
WI: LA CROSSE,01/14/2017 02:45:00,,1751.00,937.00,247.00,127.00,79.00,88.00,57.00,26.00,APPROVED
WI: LA CROSSE,01/14/2017 03:45:00,,1758.00,931.00,250.00,127.00,77.00,89.00,56.00,25.00,APPROVED
WI: LA CROSSE,01/14/2017 04:46:00,,1764.00,938.00,251.00,128.00,76.00,90.00,57.00,27.00,APPROVED
WI: LA CROSSE,01/14/2017 05:46:00,,1757.00,948.00,252.00,130.00,76.00,88.00,55.00,25.00,APPROVED
WI: LA CROSSE,01/14/2017 06:46:00,,1765.00,958.00,254.00,133.00,79.00,91.00,56.00,27.00,APPROVED
WI: LA CROSSE,01/14/2017 07:46:00,,1773.00,960.00,253.00,135.00,78.00,90.00,57.00,26.00,APPROVED
WI: LA CROSSE,01/14/2017 08:46:00,,1779.00,954.00,256.00,131.00,79.00,93.00,57.00,27.00,APPROVED
WI: LA CROSSE,01/14/2017 09:47:00,,1770.00,952.00,256.00,134.00,79.00,90.00,57.00,26.00,APPROVED
WI: LA CROSSE,01/14/2017 10:47:00,,1770.00,949.00,255.00,133.00,77.00,92.00,54.00,27.00,APPROVED
WI: LA CROSSE,01/14/2017 11:47:00,,1753.00,939.00,251.00,130.00,76.00,91.00,56.00,25.00,APPROVED
WI: LA CROSSE,01/14/2017 12:47:00,,1758.00,938.00,256.00,130.00,76.00,92.00,56.00,26.00,APPROVED
WI: LA CROSSE,01/14/2017 13:47:00,,1778.00,953.00,255.00,133.00,78.00,92.00,59.00,26.00,APPROVED
WI: LA CROSSE,01/14/2017 14:48:00,,1780.00,959.00,262.00,137.00,79.00,93.00,59.00,27.00,APPROVED
WI: LA CROSSE,01/14/2017 15:48:00,,1778.00,962.00,256.00,135.00,80.00,95.00,57.00,27.00,APPROVED
WI: LA CROSSE,01/14/2017 16:48:00,,1784.00,959.00,257.00,135.00,76.00,93.00,58.00,27.00,APPROVED
WI: LA CROSSE,01/14/2017 17:48:00,,1816.00,982.00,259.00,139.00,78.00,94.00,60.00,27.00,APPROVED
WI: LA CROSSE,01/14/2017 18:48:00,,1812.00,984.00,262.00,144.00,81.00,95.00,61.00,28.00,APPROVED
WI: LA CROSSE,01/14/2017 19:49:00,,1804.00,985.00,261.00,143.00,81.00,95.00,60.00,27.00,APPROVED
WI: LA CROSSE,01/14/2017 20:49:00,,1813.00,988.00,265.00,146.00,83.00,95.00,60.00,28.00,APPROVED
WI: LA CROSSE,01/14/2017 21:49:00,,1819.00,995.00,264.00,146.00,81.00,94.00,62.00,28.00,APPROVED
WI: LA CROSSE,01/14/2017 22:49:00,,1809.00,992.00,263.00,146.00,80.00,94.00,60.00,28.00,APPROVED
WI: LA CROSSE,01/14/2017 23:49:00,,1829.00,1001.00,268.00,144.00,81.00,97.00,61.00,28.00,APPROVED
WI: LA CROSSE,01/15/2017 00:50:00,,1845.00,1008.00,268.00,146.00,81.00,95.00,62.00,29.00,APPROVED
WI: LA CROSSE,01/15/2017 01:50:00,,1844.00,1013.00,267.00,146.00,81.00,98.00,61.00,27.00,APPROVED
WI: LA CROSSE,01/15/2017 02:50:00,,1842.00,1016.00,269.00,146.00,83.00,98.00,61.00,27.00,APPROVED
WI: LA CROSSE,01/15/2017 03:50:00,,1855.00,1017.00,269.00,148.00,82.00,96.00,61.00,29.00,APPROVED
WI: LA CROSSE,01/15/2017 04:50:00,,1865.00,1029.00,273.00,152.00,86.00,101.00,63.00,28.00,APPROVED
WI: LA CROSSE,01/15/2017 05:51:00,,1850.00,1028.00,272.00,150.00,85.00,99.00,63.00,29.00,APPROVED
WI: LA CROSSE,01/15/2017 06:51:00,,1872.00,1037.00,274.00,154.00,85.00,101.00,64.00,29.00,APPROVED
WI: LA CROSSE,01/15/2017 07:51:00,,1843.00,1027.00,272.00,154.00,86.00,103.00,64.00,28.00,APPROVED
WI: LA CROSSE,01/15/2017 08:51:00,,1867.00,1048.00,277.00,155.00,84.00,102.00,63.00,29.00,APPROVED
WI: LA CROSSE,01/15/2017 09:51:00,,1860.00,1048.00,273.00,156.00,86.00,102.00,63.00,28.00,APPROVED
WI: LA CROSSE,01/15/2017 10:52:00,,1876.00,1059.00,282.00,159.00,88.00,105.00,64.00,28.00,APPROVED
WI: LA CROSSE,01/15/2017 11:52:00,,1880.00,1075.00,286.00,167.00,87.00,106.00,67.00,30.00,APPROVED
WI: LA CROSSE,01/15/2017 12:52:00,,1875.00,1074.00,288.00,161.00,88.00,107.00,66.00,29.00,APPROVED
WI: LA CROSSE,01/15/2017 13:52:00,,1880.00,1082.00,285.00,164.00,91.00,109.00,64.00,29.00,APPROVED
WI: LA CROSSE,01/15/2017 14:52:00,,1879.00,1083.00,285.00,168.00,89.00,108.00,64.00,29.00,APPROVED
WI: LA CROSSE,01/15/2017 15:53:00,,1894.00,1089.00,287.00,169.00,90.00,107.00,66.00,29.00,APPROVED
WI: LA CROSSE,01/15/2017 16:53:00,,1877.00,1061.00,281.00,163.00,87.00,106.00,65.00,29.00,APPROVED
WI: LA CROSSE,01/15/2017 17:53:00,,1866.00,1043.00,277.00,158.00,87.00,104.00,61.00,29.00,APPROVED
WI: LA CROSSE,01/15/2017 18:53:00,,1867.00,1038.00,278.00,157.00,86.00,103.00,64.00,28.00,APPROVED
WI: LA CROSSE,01/15/2017 19:53:00,,1890.00,1054.00,282.00,161.00,88.00,103.00,64.00,29.00,APPROVED
WI: LA CROSSE,01/15/2017 20:54:00,,1915.00,1084.00,287.00,168.00,90.00,105.00,66.00,31.00,APPROVED
WI: LA CROSSE,01/15/2017 21:54:00,,1873.00,1066.00,282.00,167.00,88.00,105.00,68.00,31.00,APPROVED
WI: LA CROSSE,01/15/2017 22:54:00,,1856.00,1067.00,279.00,168.00,87.00,107.00,67.00,32.00,APPROVED
WI: LA CROSSE,01/15/2017 23:54:00,,1898.00,1082.00,287.00,171.00,92.00,110.00,67.00,33.00,APPROVED
WI: LA CROSSE,01/16/2017 00:54:00,,1864.00,1074.00,284.00,168.00,88.00,110.00,66.00,33.00,APPROVED
WI: LA CROSSE,01/16/2017 01:55:00,,1861.00,1058.00,281.00,163.00,85.00,106.00,66.00,31.00,APPROVED
WI: LA CROSSE,01/16/2017 02:55:00,,1869.00,1063.00,282.00,163.00,84.00,104.00,65.00,30.00,APPROVED
WI: LA CROSSE,01/16/2017 03:55:00,,1881.00,1066.00,282.00,164.00,89.00,102.00,64.00,31.00,APPROVED
WI: LA CROSSE,01/16/2017 04:55:00,,1871.00,1074.00,283.00,166.00,90.00,107.00,68.00,29.00,APPROVED
WI: LA CROSSE,01/16/2017 05:55:00,,1864.00,1060.00,281.00,161.00,90.00,106.00,68.00,31.00,APPROVED
WI: LA CROSSE,01/16/2017 06:56:00,,1847.00,1050.00,277.00,162.00,88.00,103.00,65.00,30.00,APPROVED
WI: LA CROSSE,01/16/2017 07:56:00,,1824.00,1030.00,271.00,161.00,85.00,103.00,66.00,30.00,APPROVED
WI: LA CROSSE,01/16/2017 08:56:00,,1805.00,1019.00,270.00,159.00,85.00,100.00,63.00,30.00,APPROVED
WI: LA CROSSE,01/16/2017 09:56:00,,1794.00,998.00,266.00,149.00,82.00,97.00,62.00,29.00,APPROVED
WI: LA CROSSE,01/16/2017 10:56:00,,1786.00,992.00,265.00,151.00,81.00,97.00,63.00,28.00,APPROVED
WI: LA CROSSE,01/16/2017 11:57:00,,1803.00,1001.00,268.00,149.00,84.00,99.00,63.00,28.00,APPROVED
WI: LA CROSSE,01/16/2017 12:57:00,,1797.00,1006.00,268.00,152.00,85.00,100.00,63.00,29.00,APPROVED
WI: LA CROSSE,01/16/2017 13:57:00,,1824.00,1023.00,276.00,155.00,85.00,100.00,63.00,29.00,APPROVED
WI: LA CROSSE,01/16/2017 14:57:00,,1852.00,1061.00,280.00,163.00,86.00,105.00,64.00,31.00,APPROVED
WI: LA CROSSE,01/16/2017 15:57:00,,1914.00,1127.00,294.00,177.00,95.00,113.00,71.00,32.00,APPROVED
WI: LA CROSSE,01/16/2017 16:58:00,,1948.00,1183.00,304.00,197.00,97.00,120.00,73.00,36.00,APPROVED
WI: LA CROSSE,01/16/2017 17:58:00,,1916.00,1147.00,300.00,191.00,95.00,120.00,72.00,35.00,APPROVED
WI: LA CROSSE,01/16/2017 18:58:00,,1881.00,1118.00,289.00,183.00,94.00,115.00,69.00,32.00,APPROVED
WI: LA CROSSE,01/16/2017 19:58:00,,1911.00,1121.00,299.00,181.00,93.00,116.00,69.00,33.00,APPROVED
WI: LA CROSSE,01/16/2017 20:58:00,,1959.00,1167.00,307.00,192.00,98.00,117.00,72.00,36.00,APPROVED
WI: LA CROSSE,01/16/2017 21:59:00,,2069.00,1258.00,323.00,206.00,102.00,127.00,73.00,37.00,APPROVED
WI: LA CROSSE,01/16/2017 22:59:00,,2205.00,1372.00,349.00,226.00,110.00,136.00,80.00,38.00,APPROVED
WI: LA CROSSE,01/16/2017 23:59:00,,2186.00,1337.00,347.00,221.00,108.00,138.00,78.00,37.00,APPROVED
WI: LA CROSSE,01/17/2017 00:59:00,,2097.00,1274.00,333.00,210.00,102.00,126.00,77.00,37.00,APPROVED
WI: LA CROSSE,01/17/2017 01:59:00,,2076.00,1246.00,324.00,206.00,99.00,124.00,74.00,35.00,APPROVED
WI: LA CROSSE,01/17/2017 03:00:00,,2049.00,1231.00,320.00,198.00,101.00,123.00,74.00,36.00,APPROVED
WI: LA CROSSE,01/17/2017 04:00:00,,1958.00,1155.00,301.00,186.00,94.00,117.00,69.00,35.00,APPROVED
WI: LA CROSSE,01/17/2017 05:00:00,,2069.00,1244.00,318.00,198.00,101.00,120.00,72.00,35.00,APPROVED
WI: LA CROSSE,01/17/2017 06:00:00,,2120.00,1288.00,329.00,209.00,102.00,126.00,76.00,37.00,APPROVED
WI: LA CROSSE,01/17/2017 07:00:00,,1885.00,1095.00,293.00,176.00,89.00,111.00,67.00,33.00,APPROVED
WI: LA CROSSE,01/17/2017 08:01:00,,1791.00,1011.00,268.00,156.00,82.00,101.00,60.00,31.00,APPROVED
WI: LA CROSSE,01/17/2017 09:01:00,,1726.00,963.00,257.00,147.00,82.00,93.00,60.00,29.00,APPROVED
WI: LA CROSSE,01/17/2017 10:01:00,,1700.00,942.00,254.00,141.00,78.00,92.00,59.00,28.00,APPROVED
WI: LA CROSSE,01/17/2017 11:01:00,,1769.00,997.00,264.00,155.00,83.00,98.00,63.00,29.00,APPROVED
WI: LA CROSSE,01/17/2017 12:01:00,,1780.00,1033.00,270.00,160.00,85.00,104.00,63.00,31.00,APPROVED
WI: LA CROSSE,01/17/2017 13:02:00,,1861.00,1074.00,280.00,175.00,89.00,108.00,65.00,32.00,APPROVED
WI: LA CROSSE,01/17/2017 14:02:00,,1909.00,1128.00,297.00,184.00,94.00,115.00,70.00,33.00,APPROVED
WI: LA CROSSE,01/17/2017 15:02:00,,1822.00,1044.00,278.00,170.00,89.00,109.00,66.00,30.00,APPROVED
WI: LA CROSSE,01/17/2017 16:02:00,,1750.00,1016.00,266.00,162.00,87.00,104.00,64.00,32.00,APPROVED
WI: LA CROSSE,01/17/2017 17:02:00,,1760.00,1013.00,263.00,160.00,84.00,101.00,65.00,31.00,APPROVED
WI: LA CROSSE,01/17/2017 18:03:00,,1808.00,1052.00,280.00,170.00,87.00,107.00,66.00,33.00,APPROVED
WI: LA CROSSE,01/17/2017 19:03:00,,2026.00,1234.00,316.00,204.00,99.00,125.00,72.00,36.00,APPROVED
WI: LA CROSSE,01/17/2017 20:03:00,,2058.00,1248.00,327.00,211.00,104.00,127.00,76.00,35.00,APPROVED
WI: LA CROSSE,01/17/2017 21:03:00,,1981.00,1194.00,315.00,195.00,98.00,120.00,74.00,35.00,APPROVED
WI: LA CROSSE,01/17/2017 22:03:00,,2120.00,1303.00,338.00,216.00,107.00,129.00,78.00,38.00,APPROVED
WI: LA CROSSE,01/17/2017 23:04:00,,2136.00,1323.00,344.00,223.00,107.00,137.00,79.00,38.00,APPROVED
WI: LA CROSSE,01/18/2017 00:04:00,,1928.00,1148.00,304.00,191.00,98.00,121.00,72.00,33.00,APPROVED
WI: LA CROSSE,01/18/2017 01:04:00,,1770.00,1010.00,272.00,160.00,85.00,102.00,65.00,31.00,APPROVED
WI: LA CROSSE,01/18/2017 02:04:00,,1712.00,971.00,257.00,149.00,81.00,98.00,62.00,29.00,APPROVED
WI: LA CROSSE,01/18/2017 03:04:00,,1699.00,958.00,255.00,149.00,82.00,97.00,63.00,30.00,APPROVED
WI: LA CROSSE,01/18/2017 04:05:00,,1687.00,961.00,251.00,152.00,80.00,96.00,61.00,31.00,APPROVED
WI: LA CROSSE,01/18/2017 05:05:00,,1661.00,922.00,246.00,144.00,79.00,92.00,60.00,28.00,APPROVED
WI: LA CROSSE,01/18/2017 06:05:00,,1658.00,906.00,244.00,135.00,77.00,90.00,57.00,28.00,APPROVED
WI: LA CROSSE,01/18/2017 07:05:00,,1659.00,904.00,242.00,131.00,76.00,89.00,57.00,27.00,APPROVED
WI: LA CROSSE,01/18/2017 08:05:00,,1676.00,910.00,246.00,132.00,75.00,89.00,56.00,27.00,APPROVED
WI: LA CROSSE,01/18/2017 09:06:00,,1704.00,935.00,253.00,140.00,76.00,93.00,57.00,27.00,APPROVED
WI: LA CROSSE,01/18/2017 10:06:00,,1740.00,972.00,259.00,152.00,80.00,96.00,61.00,29.00,APPROVED
WI: LA CROSSE,01/18/2017 11:06:00,,1746.00,975.00,262.00,153.00,84.00,98.00,60.00,28.00,APPROVED
WI: LA CROSSE,01/18/2017 12:06:00,,1761.00,999.00,264.00,154.00,81.00,100.00,62.00,29.00,APPROVED
WI: LA CROSSE,01/18/2017 13:06:00,,1751.00,999.00,265.00,154.00,84.00,99.00,62.00,29.00,APPROVED
WI: LA CROSSE,01/18/2017 14:07:00,,1752.00,989.00,262.00,158.00,81.00,99.00,61.00,29.00,APPROVED